Kosmos-2438

operational
NORAD ID: 32955 Int'l Des: 2008-025 Owner: KVR Country: RU
LEOCIRCULARPOLAR

Über Kosmos-2438

Beschreibung wird geladen...

Live-Position

3D-Globus wird geladen...

Nächste Überflüge

Höhenverlauf

Altitude vs Time

uPlot chart will show altitude changes over time

Zweizeiliger Elementsatz

1 32955U 08025C 26062.22193995 -.00000015 00000-0 -17634-3 0 9997
2 32955 82.4970 58.7713 0021280 172.6330 187.5067 12.43366652806660
Epoch: 3. März 2026 • Age: 15 hours

Aktueller Status

Höhe 1510.1 km
Geschwindigkeit 7.10 km/s
Subsatellitenpunkt 11.57°N, 32.98°E
Startdatum 23. Mai 2008
Alter 17.7 years
Typ other

Technische Details

Klassifizierung Payload
Masse 225.00 kg
Trockenmasse 225.00 kg
Gesamtmasse 225.00 kg
Länge 1.60 m
Durchmesser 0.80 m
Spannweite 7.00 m
Form Cyl + Ant
Hersteller RESH
Bus-Typ Strela-3
Phasenstatus In Orbit
Besitzer/Staat KVR/RU

Große Konstellationen

Loading constellations...